Retour au catalogue

SHIYAN 24C 03

ActifScienceSSO
NORAD 58652·PAYLOAD·🇨🇳 China

Lancé Dec 25, 2023 depuis South China Sea Launch Area

Loading…

Prochains Passages (prochaines 24 heures)

TLE

PériméSource: Space-Track

Époque: Jun 17, 2026, 14:48 UTC

1 58652U 23206C   26168.61686718  .00001145  00000-0  10098-3 0  9997
2 58652  97.4058 136.3426 0002551  71.8845 288.2656 14.98238781135368

Suivez SHIYAN 24C 03 en temps réel avec AllMySat

Download on the App Store